Home > Weather > Diego Garcia > Past weeks

Flag for British Indian Ocean Territory Weather for the Past 2 Weeks in Diego Garcia, British Indian Ocean Territory

Now
84 °F

Passing clouds.


Feels Like: 94 °F
Forecast: 80 / 86 °F
Wind: 14 mph from East

Location: Male Airport

Current Time: Feb 9, 2016 at 11:11:15 PM

Latest Report: Feb 9, 2016 at 10:00 PM


Visibility: 6 mi

Pressure: 29.92 "Hg

Humidity: 79%

Dew point: 77 °F

Location of Diego GarciaLocation

Historic Weather in Diego Garcia — Graph

°F

Diego Garcia Temperature Yesterday

Maximum temperature yesterday: 90 °F (at 2:00 PM)
Minimum temperature yesterday: 82 °F (at 12:00 AM)
Average temperature yesterday: 85 °F

High & Low Weather Summary for the Past Weeks

 TemperatureHumidityPressure
High90 °F (Jan 26, 3:00 PM)94% (Jan 25, 9:00 PM)29.98 "Hg (Jan 25, 9:00 PM)
Low75 °F (Jan 29, 3:00 AM)15% (Feb 7, 3:00 PM)29.80 "Hg (Jan 31, 4:00 PM)
Average85 °F72%29.89 "Hg
* Reported Jan 25 9:00 PM — Feb 9 9:00 PM, Diego Garcia, Weather by CustomWeather, © 2016

Note: Actual official high and low records may vary slightly from our data, if they occured in-between our weather recording intervals... More about our weather records

Advertising

Diego Garcia Weather History for the Previous 24 Hours

 ConditionsComfort  
Time TempWeatherWind HumidityBarometerVisibility
9:00 PM
Tue, Feb 9
84 °FPassing clouds.13 mph74%29.89 "Hg6 mi
8:00 PM84 °FPartly cloudy.13 mph74%29.86 "Hg6 mi
7:00 PM86 °FPartly sunny.13 mph75%29.86 "Hg6 mi
6:00 PM86 °FPartly sunny.12 mph75%29.83 "Hg6 mi
5:00 PM88 °FScattered clouds.12 mph70%29.83 "Hg6 mi
4:00 PM90 °FPartly sunny.14 mph63%29.83 "Hg6 mi
3:00 PM90 °FPartly sunny.13 mph63%29.86 "Hg6 mi
2:00 PM90 °FPartly sunny.13 mph63%29.89 "Hg6 mi
1:00 PM88 °FBroken clouds.10 mph66%29.92 "HgN/A
12:00 PM90 °FBroken clouds.12 mph63%29.92 "Hg6 mi
11:00 AM88 °FBroken clouds.10 mph66%29.95 "HgN/A
10:00 AM86 °FBroken clouds.9 mph70%29.92 "HgN/A
9:00 AM84 °FPartly sunny.8 mph79%29.92 "HgN/A
7:00 AM81 °FPassing clouds.7 mph84%29.89 "HgN/A
6:00 AM81 °FPassing clouds.7 mph84%29.86 "HgN/A
5:00 AM82 °FPassing clouds.6 mph79%29.86 "Hg6 mi
4:00 AM82 °FPassing clouds.7 mph79%29.86 "Hg6 mi
3:00 AM82 °FPassing clouds.6 mph79%29.86 "Hg6 mi
2:00 AM82 °FPassing clouds.8 mph79%29.89 "Hg6 mi
1:00 AM84 °FPassing clouds.8 mph74%29.92 "Hg6 mi
12:00 AM84 °FPassing clouds.8 mph74%29.92 "Hg6 mi
11:00 PM
Mon, Feb 8
84 °FPassing clouds.9 mph74%29.92 "Hg6 mi
Weather by CustomWeather, © 2016

See weather overviewHow to use our weather pages